Location: Unspecified
(0.0000°N, 0.0000°E)
Time: 11:36:22
(UTC+00:00)

Envisat - Pass Details

Date: 18 August 2019
Orbit: 764 x 766 km, 98.1° (Epoch: 08 December)

Event Time Altitude Azimuth Distance (km) Brightness Sun altitude
Rises 19:35:09 0° 196° (SSW) 3,229 6.3 -22.2°
Reaches altitude 10° 19:38:04 10° 213° (SSW) 2,300 5.7 -22.9°
Maximum altitude 19:41:35 19° 257° (WSW) 1,752 5.6 -23.8°
Drops below altitude 10° 19:45:06 10° 302° (WNW) 2,293 6.4 -24.6°
Sets 19:48:01 0° 320° (NW) 3,215 7.1 -25.3°
